Regional Weather Roundup
Issued by NWS

Home | Current Version | Previous Version | Graphics & Text | Print | Product List | Glossary On
Versions: 1 2 3 4 5 6 7 8 9 10 11 12 13 14 15 16 17 18 19 20 21 22 23 24 25 26 27 28 29 30 31 32 33 34 35 36 37 38 39 40 41 42 43 44 45 46 47 48 49 50
911
ASUS43 KLMK 281102
RWRKY
KENTUCKY REGIONAL WEATHER ROUNDUP
NATIONAL WEATHER SERVICE LOUISVILLE KY
700 AM EDT THU JUL 28 2016

NOTE "FAIR" INDICATES FEW OR NO CLOUDS BELOW 12,000 FEET
WITH NO SIGNIFICANT WEATHER AND/OR OBSTRUCTIONS TO VISIBILITY.

KYZ001>023-026-027-061>063-070>075-281200-
WESTERN AND SOUTH CENTRAL KENTUCKY

CITY           SKY/WX    TMP DP  RH WIND       PRES   REMARKS
PADUCAH        CLOUDY    74  72  93 CALM      29.90F
HENDERSON      NOT AVBL
OWENSBORO      LGT RAIN  73  73 100 SW3       29.92R
HOPKINSVILLE   CLOUDY    72  72 100 E6        29.92S
BOWLING GREEN  HVY RAIN  73  72  96 NW9       29.93R VSB 1
GLASGOW        NOT AVBL
$$

KYZ024-025-028>034-038-045-046-053-281200-
NORTH CENTRAL KENTUCKY

CITY           SKY/WX    TMP DP  RH WIND       PRES   REMARKS
LOUISVILLE/SDF LGT RAIN  75  72  90 SW5       29.92R
LOUISVILLE/LOU CLOUDY    75  72  90 SW5       29.93R
FORT KNOX      MOCLDY    73  72  97 MISG      29.92R
$$

KYZ035>037-039>044-047>052-055>060-089>105-281200-
NORTHEAST KENTUCKY

CITY           SKY/WX    TMP DP  RH WIND       PRES   REMARKS
LEXINGTON      CLOUDY    72  70  93 S6        29.94R
COVINGTON      LGT RAIN  73  73 100 CALM      29.94R FOG
FRANKFORT      CLOUDY    72  68  87 CALM      29.92R
$$

KYZ054-064>069-076>088-106>120-281200-
SOUTHEAST KENTUCKY

CITY           SKY/WX    TMP DP  RH WIND       PRES   REMARKS
JACKSON        CLOUDY    70  68  93 CALM      29.97S
LONDON         CLOUDY    71  68  90 CALM      29.97S
SOMERSET       CLOUDY    72  72 100 CALM      29.96F
MIDDLESBORO    MOCLDY    70  70 100 CALM      30.00S
MONTICELLO     CLOUDY   N/A N/A N/A E6        29.97S
$$





USA.gov is the U.S. government's official web portal to all federal, state and local government web resources and services.